Overview Statistics Trail Chart Weather Telemetry Raw packets
 

This is the latest recevied weather packets stored in our database for station/object WW7CH-15. If no packets are shown the sender has not sent any weather packets the latest 10 day(s).

<< 101 102 103 104 105 106 107 >>
Time Temp. Humidity Pressure Rain* Wind** Luminosity Snow
1787852118 19.44° C 41% - 0 mm - - -
1787851817 18.89° C 39% - 0 mm - - -
1787851518 18.89° C 36% - 0 mm - - -
1787851217 18.33° C 29% - 0 mm - - -
1787850918 17.78° C 24% - 0 mm - - -
1787850619 17.78° C 17% - 0 mm - - -
1787850318 17.22° C 18% - 0 mm - - -
1787850017 17.22° C 7% - 0 mm - - -
1787849717 17.22° C 2% - 0 mm - - -
1787849417 16.67° C 1% - 0 mm - - -
1787849118 16.67° C 1% - 0 mm - - -
1787848818 16.11° C 1% - 0 mm - - -
1787848518 15.56° C 1% - 0 mm - - -
1787848217 15.56° C 1% - 0 mm - - -
1787847916 15° C 1% - 0 mm - - -
1787847618 15° C 1% - 0 mm - - -
1787847318 15° C 1% - 0 mm - - -
1787847018 15° C 1% - 0 mm - - -
1787846717 14.44° C 1% - 0 mm - - -
1787846418 14.44° C 1% - 0 mm - - -
1787846118 14.44° C 1% - 0 mm - - -
1787845818 14.44° C 1% - 0 mm - - -
1787845518 14.44° C 1% - 0 mm - - -
1787845218 14.44° C 1% - 0 mm - - -
1787844918 13.89° C 1% - 0 mm - - -

* Rain latest hour (hover to see other rain measurements)
** Current wind speed in m/s (hover to see current wind gust speed)